BEL9901 EBCI-EBBR

Flight info

Callsign BEL9901
Flight time 0h 19m
Altitude 10000
Route LNO
Aircraft A20N/M-SDE2E3FGHIRWXY/LB1

Departure

Time 2026-05-03 20:37
Airport Brussels South Charleroi Airport (EBCI)

Arrival

Time 2026-05-03 20:56
Airport Brussels Airport (EBBR)
Time Latitude Longitude Altitude Speed Heading
2026-05-03 20:15 50.46872 4.47097 586 ft 0 kts 335°
2026-05-03 20:29 50.46869 4.47098 586 ft 2 kts 335°
2026-05-03 20:30 50.46856 4.47108 586 ft 2 kts 335°
2026-05-03 20:30 50.46841 4.47117 586 ft 2 kts 356°
2026-05-03 20:30 50.46827 4.47114 586 ft 2 kts 19°
2026-05-03 20:30 50.46813 4.47103 586 ft 2 kts 44°
2026-05-03 20:31 50.46806 4.47088 586 ft 0 kts 62°
2026-05-03 20:31 50.46803 4.47078 586 ft 1 kts 66°
2026-05-03 20:31 50.46803 4.47077 586 ft 0 kts 66°
2026-05-03 20:34 50.46805 4.47084 586 ft 1 kts 66°
2026-05-03 20:34 50.46811 4.47107 586 ft 3 kts 66°
2026-05-03 20:34 50.46825 4.47157 586 ft 6 kts 65°
2026-05-03 20:35 50.46849 4.47234 586 ft 9 kts 65°
2026-05-03 20:35 50.46837 4.47324 586 ft 10 kts 141°
2026-05-03 20:35 50.46779 4.47367 586 ft 8 kts 158°
2026-05-03 20:35 50.46720 4.47408 586 ft 9 kts 154°
2026-05-03 20:36 50.46655 4.47455 586 ft 10 kts 158°
2026-05-03 20:36 50.46610 4.47435 586 ft 7 kts 234°
2026-05-03 20:36 50.46587 4.47357 587 ft 7 kts 246°
2026-05-03 20:36 50.46541 4.47192 589 ft 44 kts 246°
2026-05-03 20:37 50.46313 4.46401 603 ft 113 kts 245°
2026-05-03 20:37 50.45907 4.44998 639 ft 166 kts 244°
2026-05-03 20:37 50.45427 4.43296 1193 ft 172 kts 243°
2026-05-03 20:37 50.44942 4.41629 1977 ft 170 kts 244°
2026-05-03 20:38 50.44462 4.39982 2701 ft 171 kts 243°
2026-05-03 20:38 50.43940 4.38256 3263 ft 180 kts 243°
2026-05-03 20:38 50.43391 4.36387 3665 ft 202 kts 244°
2026-05-03 20:38 50.42796 4.34282 4191 ft 219 kts 244°
2026-05-03 20:39 50.42159 4.32064 4751 ft 234 kts 244°
2026-05-03 20:39 50.41457 4.29662 5320 ft 251 kts 244°
2026-05-03 20:39 50.40789 4.27088 6028 ft 262 kts 257°
2026-05-03 20:39 50.40877 4.24279 6831 ft 271 kts 285°
2026-05-03 20:40 50.41836 4.21716 7699 ft 281 kts 312°
2026-05-03 20:40 50.43475 4.20019 8590 ft 289 kts 333°
2026-05-03 20:40 50.45325 4.18771 9396 ft 293 kts 334°
2026-05-03 20:40 50.47227 4.17658 9891 ft 299 kts 347°
2026-05-03 20:41 50.49344 4.17786 10124 ft 317 kts 15°
2026-05-03 20:41 50.51408 4.19330 10053 ft 347 kts 30°
2026-05-03 20:41 50.53567 4.21411 10000 ft 379 kts 31°
2026-05-03 20:41 50.55882 4.23606 9972 ft 392 kts 30°
2026-05-03 20:42 50.58225 4.25731 9949 ft 394 kts 29°
2026-05-03 20:42 50.60616 4.27838 9949 ft 394 kts 28°
2026-05-03 20:42 50.62905 4.30231 9935 ft 394 kts 41°
2026-05-03 20:42 50.64711 4.33461 9945 ft 394 kts 57°
2026-05-03 20:43 50.65979 4.37258 9956 ft 392 kts 66°
2026-05-03 20:43 50.67091 4.41155 9949 ft 392 kts 67°
2026-05-03 20:43 50.68201 4.45112 9947 ft 393 kts 66°
2026-05-03 20:43 50.69314 4.49058 9949 ft 393 kts 66°
2026-05-03 20:44 50.70417 4.52933 9947 ft 393 kts 66°
2026-05-03 20:44 50.71540 4.56859 9959 ft 393 kts 66°
2026-05-03 20:44 50.72670 4.60792 9950 ft 394 kts 66°
2026-05-03 20:44 50.73804 4.64738 9942 ft 394 kts 66°
2026-05-03 20:45 50.74925 4.68643 9961 ft 393 kts 67°
2026-05-03 20:45 50.76047 4.72552 9957 ft 393 kts 67°
2026-05-03 20:45 50.77174 4.76490 9786 ft 386 kts 67°
2026-05-03 20:45 50.78257 4.80276 9546 ft 373 kts 67°
2026-05-03 20:46 50.79305 4.83942 9326 ft 360 kts 66°
2026-05-03 20:46 50.80318 4.87495 9114 ft 348 kts 66°
2026-05-03 20:46 50.81282 4.90878 8902 ft 336 kts 66°
2026-05-03 20:46 50.82219 4.94175 8708 ft 325 kts 66°
2026-05-03 20:47 50.83131 4.97389 8457 ft 309 kts 67°
2026-05-03 20:47 50.83984 5.00400 8098 ft 296 kts 67°
2026-05-03 20:47 50.84811 5.03320 7645 ft 294 kts 67°
2026-05-03 20:47 50.85650 5.06233 7339 ft 289 kts 62°
2026-05-03 20:48 50.86930 5.08602 7053 ft 282 kts 30°
2026-05-03 20:48 50.88749 5.09459 6796 ft 271 kts 356°
2026-05-03 20:48 50.90523 5.08637 6222 ft 270 kts 321°
2026-05-03 20:48 50.91662 5.06405 5765 ft 264 kts 290°
2026-05-03 20:49 50.92266 5.03689 5307 ft 259 kts 288°
2026-05-03 20:49 50.92955 5.01095 4819 ft 253 kts 293°
2026-05-03 20:49 50.93760 4.98637 4337 ft 255 kts 296°
2026-05-03 20:49 50.94651 4.96207 3855 ft 257 kts 298°
2026-05-03 20:50 50.95575 4.93822 3670 ft 248 kts 299°
2026-05-03 20:50 50.96468 4.91564 3494 ft 240 kts 299°
2026-05-03 20:50 50.97342 4.89371 3313 ft 233 kts 299°
2026-05-03 20:50 50.98074 4.87144 3120 ft 223 kts 282°
2026-05-03 20:51 50.98267 4.84780 2997 ft 211 kts 272°
2026-05-03 20:51 50.98383 4.82515 2830 ft 205 kts 272°
2026-05-03 20:51 50.98504 4.80251 2516 ft 205 kts 273°
2026-05-03 20:51 50.98611 4.78059 2360 ft 197 kts 267°
2026-05-03 20:52 50.98437 4.76002 2341 ft 178 kts 254°
2026-05-03 20:52 50.98068 4.74204 2159 ft 169 kts 248°
2026-05-03 20:52 50.97650 4.72481 1995 ft 170 kts 246°
2026-05-03 20:52 50.97186 4.70737 1983 ft 172 kts 245°
2026-05-03 20:53 50.96697 4.68997 1980 ft 172 kts 245°
2026-05-03 20:53 50.96198 4.67270 1976 ft 172 kts 245°
2026-05-03 20:53 50.95695 4.65551 1974 ft 172 kts 244°
2026-05-03 20:53 50.95191 4.63832 1975 ft 173 kts 244°
2026-05-03 20:54 50.94706 4.62170 1864 ft 157 kts 244°
2026-05-03 20:54 50.93867 4.59283 1468 ft 136 kts 244°
2026-05-03 20:54 50.93471 4.57925 1285 ft 135 kts 244°
2026-05-03 20:55 50.93080 4.56578 1108 ft 134 kts 244°
2026-05-03 20:55 50.92691 4.55241 930 ft 134 kts 244°
2026-05-03 20:55 50.92304 4.53914 734 ft 133 kts 244°
2026-05-03 20:55 50.91918 4.52573 563 ft 133 kts 245°
2026-05-03 20:56 50.91539 4.51249 390 ft 132 kts 244°
2026-05-03 20:56 50.91156 4.49931 226 ft 132 kts 243°
2026-05-03 20:56 50.90799 4.48710 193 ft 102 kts 249°
2026-05-03 20:56 50.90593 4.47994 193 ft 43 kts 245°
2026-05-03 20:57 50.90434 4.47658 193 ft 25 kts 220°
2026-05-03 20:57 50.90342 4.47573 193 ft 12 kts 175°
2026-05-03 20:57 50.90313 4.47659 193 ft 9 kts 62°
2026-05-03 20:57 50.90345 4.47763 193 ft 11 kts 66°